Regional Weather Roundup
Issued by NWS

Home | Current Version | Previous Version | Text Only | Print | Product List | Glossary Off
Versions: 1 2 3 4 5 6 7 8 9 10 11 12 13 14 15 16 17 18 19 20 21 22 23 24 25 26 27 28 29 30 31 32 33 34 35 36 37 38 39 40 41 42 43 44 45 46 47 48 49 50

000
ASUS43 KLOT 241508
RWRIL

ILLINOIS REGIONAL WEATHER ROUNDUP
NATIONAL WEATHER SERVICE CHICAGO/ROMEOVILLE IL
900 AM CST FRI FEB 24 2017

NOTE: "FAIR" INDICATES FEW OR NO CLOUDS BELOW 12,000 FEET WITH NO
SIGNIFICANT WEATHER AND/OR OBSTRUCTIONS TO VISIBILITY.

* THESE STATIONS ARE NOT UNDER NWS QUALITY CONTROL. THEY ALSO MAY NOT
  REPORT WEATHER SUCH AS PRECIPITATION OR FOG.

ILZ001-002-007-009-015-016-024-241600-
NORTHWEST ILLINOIS

CITY           SKY/WX    TMP DP  RH WIND       PRES   REMARKS
MOLINE         CLOUDY    41  37  86 NE10      29.44S FOG
STERLING*      CLOUDY    39  38  96 NE8       29.46R WCI  33
$$

ILZ003-004-008-010-011-017-018-241600-
NORTH CENTRAL ILLINOIS

CITY           SKY/WX    TMP DP  RH WIND       PRES   REMARKS
ROCKFORD       DRIZZLE   38  36  92 NE13      29.51R FOG     WCI  30
FREEPORT*      CLOUDY    34  33  97 NE15G25   29.51S FOG     WCI  24
ROCHELLE*      CLOUDY    38  37  99 NE13      29.46F FOG     WCI  30
DE KALB*       CLOUDY    38  37  98 NE13      29.46F FOG     WCI  30
PERU*          CLOUDY    43  41  95 NE8       29.44S FOG
$$

ILZ005-006-012>014-019>023-241600-
NORTHEAST ILLINOIS

CITY           SKY/WX    TMP DP  RH WIND       PRES   REMARKS
CHICAGO-OHARE  CLOUDY    39  37  92 N17       29.48F FOG     WCI  30
CHICAGO-MIDWAY CLOUDY    41  39  93 N12       29.48S FOG
AURORA         CLOUDY    41  39  93 NE13      29.46F FOG
LANSING*       CLOUDY    44  44 100 CALM      29.48S FOG
JOLIET*        CLOUDY    46  45  97 NE6       29.46F FOG
WAUKEGAN       CLOUDY    36  35  96 NE15G26   29.50F FOG     WCI  27
DUPAGE AIRPORT FOG       39  36  89 NE12      29.47F VSB 1   WCI  32
KANKAKEE*      SUNNY     61  58  89 S18       29.45F
WHEELING       CLOUDY    37  35  92 NE10G20   29.51S WCI  30
MORRIS*        CLOUDY    46  44  95 NE6       29.44S FOG
ROMEOVILLE*    CLOUDY    43  43 100 NE9       29.46F FOG
NORTHERLY ISL    N/A     40  39  97 N10         N/A
$$

LMZ740>746-241600-
SOUTHERN LAKE MICHIGAN

STATION/POSITION SKY/WX   TEMP    WIND        PRES    VSBY  WAVE
                          AIR SEA DIR/SP/G                  HT/PER
                          (F)     (DEG/KT/KT) (MB)    (MI)  (FT/S)
HARRISON CRIB              38     330/ 18/ 20   N/A
BURNHAM HARBOR             39     360/ 12       N/A
CALUMET HARBOR             40     320/  8/ 13  998.2R
BURNS HARBOR               38     260/  6/  7  999.3S
MICHIGAN CITY                     220/  6/  7   N/A
$$

ILZ025>027-034>036-040-047-049-050-058-095>099-241600-
WEST-CENTRAL ILLINOIS

CITY           SKY/WX    TMP DP  RH WIND       PRES   REMARKS
QUINCY         FOG       44  44 100 W17       29.50R VSB 1
GALESBURG*     CLOUDY    43  43 100 CALM      29.43R FOG
MACOMB*        CLOUDY    45  45  99 W18       29.47R FOG
JACKSONVILLE*  CLOUDY    60  55  82 SW13      29.44R
PITTSFIELD*    CLOUDY    52  50  92 W13G21    29.50R FOG
$$

ILZ028>032-037-038-041>044-048-051>054-059>061-241600-
CENTRAL ILLINOIS

CITY           SKY/WX    TMP DP  RH WIND       PRES   REMARKS
PONTIAC        MOSUNNY   62  60  91 S17       29.43F
BLOOMINGTON    CLOUDY    60  56  86 S24G30    29.43S
DECATUR        PTSUNNY   63  55  75 S20G28    29.47S
PEORIA         CLOUDY    60  56  86 SW14      29.41F
LACON*         CLOUDY    47  47 100 CALM      29.42S FOG
LINCOLN*       MOSUNNY   62  58  84 S17G28    29.44R
SPRINGFIELD    MOSUNNY   63  56  78 S17       29.44S
TAYLORVILLE    CLOUDY    61  56  83 S20G26    29.47S
$$

ILZ033-039-045-046-055>057-062-063-241600-
EAST-CENTRAL ILLINOIS

CITY           SKY/WX    TMP DP  RH WIND       PRES   REMARKS
CHAMPAIGN      CLOUDY    63  55  75 S25G31    29.47F
RANTOUL*       CLOUDY    64  58  81 S18G28    29.47S
MATTOON        MOSUNNY   63  57  81 S17G25    29.51S
PARIS*         PTSUNNY   64  57  80 S24G30    29.52F
$$

ILZ079-100>102-241600-
SOUTHWEST ILLINOIS

CITY           SKY/WX    TMP DP  RH WIND       PRES   REMARKS
ALTON          CLOUDY    61  54  77 S13       29.49R
BELLEVILLE     CLOUDY    63  57  80 SE9       29.50S
CAHOKIA*       CLOUDY    64  53  67 S10G21    29.50R
SPARTA*        MOSUNNY   63  55  76 S18       29.54S
$$

ILZ064>066-069>071-074>076-080>082-084>086-088>090-092>094-241600-
SOUTH-CENTRAL ILLINOIS

CITY           SKY/WX    TMP DP  RH WIND       PRES   REMARKS
CARBONDALE     CLOUDY    65  55  70 S30G38    29.56R
CAIRO*         PTSUNNY   64  55  71 S17G25    29.61S
EFFINGHAM*     MOSUNNY   65  57  75 S16G24    29.54R
MARION         MOSUNNY   66  57  72 S15G23    29.59S
MT. VERNON     MOSUNNY   66  55  67 SW22G31   29.55S
CENTRALIA*     MOSUNNY   67  57  70 S24G30    29.52S
SALEM*         MOSUNNY   66  55  66 S22G32    29.53R
METROPOLIS*    CLOUDY    66  56  70 S16G25    29.62F
$$

ILZ067-068-072-073-078-083-087-091-241600-
SOUTHEAST ILLINOIS

CITY           SKY/WX    TMP DP  RH WIND       PRES   REMARKS
LAWRENCEVILLE  MOSUNNY   66  56  70 S26G33    29.57F
FLORA*         MOSUNNY   67  57  70 S23       29.55R
FAIRFIELD*     MOSUNNY   66  56  69 S15       29.56S
HARRISBURG*    MOSUNNY   66  56  69 SW21G29   29.59R
ROBINSON*      MOSUNNY   64  56  74 S22G28    29.56F
CARMI*         MOSUNNY   65  57  75 S18       29.59S
$$

ABBREVIATIONS USED IN REMARKS
   TC - TEMPERATURE IN CELSIUS
  WCI - WIND CHILL INDEX
   HX - HEAT INDEX
  VSB - VISIBILITY
$$




USA.gov is the U.S. government's official web portal to all federal, state and local government web resources and services.